| time (UTC) | temp F | wind direction | speed MPH | gust MPH | rain 1hr in | rain 24hr in | rain mn in | humidity % | barometer mb |
| 20260507074513 | 61 | 259 | 0.0 | 2.0 | 0.00 | 0.00 | 0.00 | 75 | 1012.0 |
| 20260507071513 | 61 | 270 | 0.0 | 2.0 | 0.00 | 0.00 | 0.00 | 77 | 1011.0 |
| 20260507070020 | 59 | 0 | 0.0 | 0.0 | 0.00 | 0.00 | 0.00 | 81 | 1011.0 |
| 20260507064513 | 58 | 0 | 0.0 | 2.0 | 0.00 | 0.00 | 0.00 | 85 | 1011.0 |
| 20260507063021 | 57 | 0 | 0.0 | 0.0 | 0.00 | 0.00 | 0.00 | 86 | 1011.0 |
| 20260507061513 | 57 | 270 | 0.0 | 2.0 | 0.00 | 0.00 | 0.00 | 87 | 1011.0 |
| 20260507060019 | 56 | 0 | 0.0 | 0.0 | 0.00 | 0.00 | 0.00 | 87 | 1011.0 |
| 20260507054513 | 55 | 0 | 0.0 | 0.0 | 0.00 | 0.00 | 0.00 | 88 | 1011.0 |
| 20260507053020 | 55 | 0 | 0.0 | 0.0 | 0.00 | 0.00 | 0.00 | 88 | 1011.0 |
| 20260507051513 | 55 | 0 | 0.0 | 0.0 | 0.00 | 0.00 | 0.00 | 88 | 1011.0 |
| 20260507050021 | 55 | 0 | 0.0 | 0.0 | 0.00 | 0.00 | 0.00 | 89 | 1011.0 |
| 20260507044513 | 55 | 270 | 0.0 | 2.0 | 0.00 | 0.00 | 0.00 | 88 | 1010.0 |
| 20260507043019 | 55 | 0 | 0.0 | 2.0 | 0.00 | 0.00 | 0.00 | 86 | 1010.0 |
| 20260507041513 | 55 | 0 | 0.0 | 0.0 | 0.00 | 0.00 | 0.00 | 87 | 1010.0 |
| 20260507040021 | 56 | 270 | 0.0 | 2.0 | 0.00 | 0.00 | 0.00 | 85 | 1010.0 |
| 20260507034512 | 57 | 0 | 1.0 | 2.0 | 0.00 | 0.00 | 0.00 | 83 | 1010.0 |
| 20260507033020 | 58 | 270 | 0.0 | 2.0 | 0.00 | 0.00 | 0.00 | 80 | 1009.0 |
| 20260507031513 | 59 | 170 | 2.0 | 7.0 | 0.00 | 0.00 | 0.00 | 79 | 1009.0 |
| 20260507030020 | 59 | 185 | 2.0 | 8.0 | 0.00 | 0.00 | 0.00 | 77 | 1009.0 |
| 20260507024513 | 59 | 180 | 1.0 | 3.0 | 0.00 | 0.00 | 0.00 | 76 | 1009.0 |
| 20260507021513 | 60 | 185 | 3.0 | 10.0 | 0.00 | 0.00 | 0.00 | 74 | 1010.0 |
| 20260507020019 | 60 | 188 | 3.0 | 7.0 | 0.00 | 0.00 | 0.00 | 75 | 1010.0 |
| 20260507014513 | 60 | 191 | 2.0 | 5.0 | 0.00 | 0.00 | 0.00 | 75 | 1009.0 |
| 20260507013019 | 60 | 180 | 2.0 | 4.0 | 0.00 | 0.00 | 0.00 | 77 | 1009.0 |
| 20260507011513 | 60 | 223 | 1.0 | 4.0 | 0.00 | 0.00 | 0.00 | 76 | 1009.0 |
| 20260507010019 | 60 | 194 | 4.0 | 8.0 | 0.00 | 0.00 | 0.00 | 75 | 1009.0 |
| 20260507004513 | 60 | 160 | 1.0 | 4.0 | 0.00 | 0.00 | 0.00 | 76 | 1009.0 |
| 20260507001513 | 59 | 175 | 2.0 | 4.0 | 0.00 | 0.00 | 0.00 | 78 | 1009.0 |
| 20260507000018 | 60 | 240 | 0.0 | 2.0 | 0.00 | 0.00 | 0.00 | 78 | 1009.0 |
| 20260506234513 | 60 | 180 | 1.0 | 3.0 | 0.00 | 0.00 | 0.00 | 78 | 1009.0 |
| 20260506233022 | 60 | 180 | 2.0 | 6.0 | 0.00 | 0.00 | 0.00 | 76 | 1009.0 |
| 20260506231513 | 60 | 180 | 0.0 | 2.0 | 0.00 | 0.00 | 0.00 | 78 | 1009.0 |
| 20260506230021 | 61 | 0 | 0.0 | 2.0 | 0.00 | 0.00 | 0.00 | 77 | 1009.0 |
| 20260506224513 | 61 | 193 | 1.0 | 4.0 | 0.00 | 0.00 | 0.00 | 75 | 1009.0 |
| 20260506223021 | 61 | 180 | 1.0 | 6.0 | 0.00 | 0.00 | 0.00 | 75 | 1009.0 |
| 20260506221513 | 61 | 201 | 2.0 | 5.0 | 0.00 | 0.00 | 0.00 | 76 | 1009.0 |
| 20260506220025 | 61 | 180 | 0.0 | 4.0 | 0.00 | 0.00 | 0.00 | 76 | 1009.0 |
| 20260506214513 | 60 | 180 | 1.0 | 5.0 | 0.00 | 0.00 | 0.00 | 77 | 1009.0 |
| 20260506213021 | 60 | 152 | 1.0 | 7.0 | 0.00 | 0.00 | 0.00 | 77 | 1009.0 |
| 20260506211513 | 61 | 130 | 1.0 | 2.0 | 0.00 | 0.00 | 0.00 | 77 | 1009.0 |
| 20260506210020 | 61 | 166 | 1.0 | 7.0 | 0.00 | 0.00 | 0.00 | 76 | 1009.0 |
| 20260506204513 | 60 | 180 | 3.0 | 6.0 | 0.00 | 0.00 | 0.00 | 75 | 1009.0 |
| 20260506201513 | 62 | 215 | 1.0 | 4.0 | 0.00 | 0.00 | 0.00 | 72 | 1009.0 |
| 20260506200019 | 62 | 214 | 3.0 | 7.0 | 0.00 | 0.00 | 0.00 | 70 | 1009.0 |
| 20260506194513 | 61 | 206 | 2.0 | 9.0 | 0.00 | 0.00 | 0.00 | 71 | 1009.0 |
| 20260506193020 | 62 | 203 | 1.0 | 5.0 | 0.00 | 0.00 | 0.00 | 73 | 1008.0 |
| 20260506191513 | 62 | 183 | 2.0 | 7.0 | 0.00 | 0.00 | 0.00 | 71 | 1008.0 |
| 20260506190021 | 63 | 195 | 2.0 | 8.0 | 0.00 | 0.00 | 0.00 | 71 | 1008.0 |
| 20260506184513 | 63 | 191 | 4.0 | 12.0 | 0.00 | 0.00 | 0.00 | 70 | 1008.0 |
| 20260506183021 | 64 | 212 | 5.0 | 11.0 | 0.00 | 0.00 | 0.00 | 69 | 1008.0 |
| 20260506181513 | 64 | 180 | 4.0 | 6.0 | 0.00 | 0.00 | 0.00 | 69 | 1007.0 |
| 20260506180021 | 64 | 149 | 6.0 | 12.0 | 0.00 | 0.00 | 0.00 | 69 | 1007.0 |
| 20260506174513 | 64 | 170 | 5.0 | 17.0 | 0.00 | 0.00 | 0.00 | 69 | 1007.0 |
| 20260506173019 | 65 | 186 | 9.0 | 17.0 | 0.00 | 0.00 | 0.00 | 68 | 1007.0 |
| 20260506171513 | 65 | 181 | 7.0 | 16.0 | 0.00 | 0.00 | 0.00 | 68 | 1007.0 |
| 20260506170019 | 66 | 178 | 6.0 | 17.0 | 0.00 | 0.00 | 0.00 | 66 | 1007.0 |
| 20260506164513 | 67 | 199 | 3.0 | 11.0 | 0.00 | 0.00 | 0.00 | 66 | 1007.0 |
| 20260506161513 | 66 | 218 | 9.0 | 18.0 | 0.00 | 0.00 | 0.00 | 66 | 1007.0 |
| 20260506154513 | 67 | 234 | 7.0 | 16.0 | 0.00 | 0.00 | 0.00 | 64 | 1007.0 |
| 20260506151513 | 68 | 216 | 11.0 | 23.0 | 0.00 | 0.00 | 0.00 | 63 | 1007.0 |
| 20260506150020 | 69 | 164 | 11.0 | 27.0 | 0.00 | 0.00 | 0.00 | 61 | 1007.0 |
| 20260506144513 | 70 | 214 | 8.0 | 19.0 | 0.00 | 0.00 | 0.00 | 59 | 1007.0 |
| 20260506141514 | 69 | 142 | 8.0 | 18.0 | 0.00 | 0.00 | 0.00 | 60 | 1007.0 |
| 20260506140020 | 70 | 180 | 10.0 | 19.0 | 0.00 | 0.00 | 0.00 | 58 | 1007.0 |
| 20260506134513 | 71 | 151 | 7.0 | 20.0 | 0.00 | 0.00 | 0.00 | 56 | 1007.0 |
| 20260506133020 | 71 | 187 | 9.0 | 18.0 | 0.00 | 0.00 | 0.00 | 57 | 1007.0 |
| 20260506131513 | 72 | 188 | 10.0 | 22.0 | 0.00 | 0.00 | 0.00 | 54 | 1007.0 |
| 20260506130020 | 72 | 177 | 9.0 | 23.0 | 0.00 | 0.00 | 0.00 | 54 | 1007.0 |
| 20260506124513 | 72 | 180 | 9.0 | 17.0 | 0.00 | 0.00 | 0.00 | 54 | 1007.0 |
| 20260506123021 | 72 | 233 | 7.0 | 22.0 | 0.00 | 0.00 | 0.00 | 53 | 1007.0 |
| 20260506121513 | 71 | 177 | 9.0 | 25.0 | 0.00 | 0.00 | 0.00 | 54 | 1008.0 |
| 20260506120018 | 71 | 196 | 9.0 | 17.0 | 0.00 | 0.00 | 0.00 | 56 | 1008.0 |
| 20260506114513 | 70 | 188 | 5.0 | 14.0 | 0.00 | 0.00 | 0.00 | 57 | 1008.0 |
| 20260506111513 | 69 | 220 | 6.0 | 15.0 | 0.00 | 0.00 | 0.00 | 59 | 1008.0 |
| 20260506110021 | 68 | 202 | 7.0 | 20.0 | 0.00 | 0.00 | 0.00 | 60 | 1008.0 |
| 20260506104513 | 67 | 202 | 4.0 | 12.0 | 0.00 | 0.00 | 0.00 | 62 | 1009.0 |
| 20260506103021 | 68 | 201 | 7.0 | 20.0 | 0.00 | 0.00 | 0.00 | 61 | 1009.0 |
| 20260506101513 | 71 | 188 | 8.0 | 16.0 | 0.00 | 0.00 | 0.00 | 58 | 1009.0 |
| 20260506100020 | 73 | 248 | 7.0 | 17.0 | 0.00 | 0.00 | 0.00 | 51 | 1008.0 |
| 20260506094513 | 72 | 244 | 5.0 | 11.0 | 0.00 | 0.00 | 0.00 | 47 | 1008.0 |
| 20260506093020 | 72 | 242 | 5.0 | 11.0 | 0.00 | 0.00 | 0.00 | 48 | 1008.0 |
| 20260506091513 | 72 | 229 | 4.0 | 9.0 | 0.00 | 0.00 | 0.00 | 50 | 1008.0 |
| 20260506090021 | 71 | 165 | 2.0 | 9.0 | 0.00 | 0.00 | 0.00 | 51 | 1008.0 |
| 20260506084513 | 70 | 180 | 3.0 | 9.0 | 0.00 | 0.00 | 0.00 | 54 | 1008.0 |
| 20260506083020 | 70 | 189 | 4.0 | 8.0 | 0.00 | 0.00 | 0.00 | 55 | 1008.0 |
| 20260506081513 | 69 | 169 | 1.0 | 4.0 | 0.00 | 0.00 | 0.00 | 54 | 1008.0 |